Time,TemperatureF,DewpointF,PressureIn,WindDirection,WindDirectionDegrees,WindSpeedMPH,WindSpeedGustMPH,Humidity,HourlyPrecipIn,Conditions,Clouds,dailyrainin,SoftwareType,DateUTC
2014-02-09 00:11:00,53.0,52.0,30.23,ESE,109,2.0,-999.0,95,-99.99,,,-99.99,,2014-02-09 08:11:00,
2014-02-09 00:21:00,53.0,52.0,30.24,East,101,2.0,-999.0,95,-99.99,,,-99.99,,2014-02-09 08:21:00,
2014-02-09 00:52:00,53.0,52.0,30.24,ESE,110,1.0,-999.0,96,-99.99,,,-99.99,,2014-02-09 08:52:00,
2014-02-09 01:12:00,53.0,52.0,30.23,ESE,113,1.0,-999.0,96,-99.99,,,-99.99,,2014-02-09 09:12:00,
2014-02-09 01:22:00,53.0,52.0,30.24,ESE,113,0.0,-999.0,96,-99.99,,,-99.99,,2014-02-09 09:22:00,
2014-02-09 01:43:00,53.0,52.0,30.23,ESE,113,0.0,-999.0,96,-99.99,,,-99.99,,2014-02-09 09:43:00,
2014-02-09 01:53:00,53.0,52.0,30.23,SE,132,0.0,-999.0,96,-99.99,,,-99.99,,2014-02-09 09:53:00,
2014-02-09 02:22:00,53.0,52.0,30.23,ESE,116,1.0,-999.0,95,-99.99,,,-99.99,,2014-02-09 10:22:00,
2014-02-09 02:42:00,53.0,52.0,30.22,ESE,113,1.0,-999.0,96,-99.99,,,-99.99,,2014-02-09 10:42:00,
2014-02-09 02:53:00,53.0,52.0,30.22,ESE,109,1.0,-999.0,96,-99.99,,,-99.99,,2014-02-09 10:53:00,
2014-02-09 03:21:00,53.0,52.0,30.21,ESE,109,2.0,-999.0,96,-99.99,,,-99.99,,2014-02-09 11:21:00,
2014-02-09 03:42:00,53.0,52.0,30.20,ESE,110,0.0,-999.0,96,-99.99,,,-99.99,,2014-02-09 11:42:00,
2014-02-09 03:52:00,53.0,52.0,30.21,SE,126,0.0,-999.0,96,-99.99,,,-99.99,,2014-02-09 11:52:00,
2014-02-09 04:12:00,53.0,52.0,30.21,SE,126,0.0,-999.0,96,-99.99,,,-99.99,,2014-02-09 12:12:00,
2014-02-09 04:22:00,53.0,52.0,30.20,ESE,122,2.0,-999.0,96,-99.99,,,-99.99,,2014-02-09 12:22:00,
2014-02-09 04:42:00,53.0,52.0,30.19,ESE,121,0.0,-999.0,96,-99.99,,,-99.99,,2014-02-09 12:42:00,
2014-02-09 04:52:00,53.0,52.0,30.19,ESE,122,0.0,-999.0,96,-99.99,,,-99.99,,2014-02-09 12:52:00,
2014-02-09 05:22:00,53.0,52.0,30.19,ESE,121,0.0,-999.0,96,-99.99,,,-99.99,,2014-02-09 13:22:00,
2014-02-09 05:42:00,53.0,52.0,30.19,ESE,116,0.0,-999.0,96,-99.99,,,-99.99,,2014-02-09 13:42:00,
2014-02-09 05:52:00,53.0,52.0,30.18,ESE,114,0.0,-999.0,96,-99.99,,,-99.99,,2014-02-09 13:52:00,
2014-02-09 06:21:00,53.0,52.0,30.18,ESE,114,0.0,-999.0,96,-99.99,,,-99.99,,2014-02-09 14:21:00,
2014-02-09 06:42:00,54.0,53.0,30.18,ESE,114,0.0,-999.0,96,-99.99,,,-99.99,,2014-02-09 14:42:00,
2014-02-09 06:52:00,53.0,52.0,30.19,ESE,114,0.0,-999.0,96,-99.99,,,-99.99,,2014-02-09 14:52:00,
2014-02-09 07:22:00,53.0,52.0,30.20,ESE,115,0.0,-999.0,96,-99.99,,,-99.99,,2014-02-09 15:22:00,
2014-02-09 07:44:00,54.0,53.0,30.20,ESE,112,0.0,-999.0,96,-99.99,,,-99.99,,2014-02-09 15:44:00,
2014-02-09 07:53:00,54.0,53.0,30.20,ESE,111,1.0,-999.0,96,-99.99,,,-99.99,,2014-02-09 15:53:00,
2014-02-09 08:13:00,54.0,53.0,30.20,ESE,107,1.0,-999.0,96,-99.99,,,-99.99,,2014-02-09 16:13:00,
2014-02-09 08:23:00,54.0,53.0,30.20,ESE,107,0.0,-999.0,96,-99.99,,,-99.99,,2014-02-09 16:23:00,
2014-02-09 08:43:00,54.0,53.0,30.20,ESE,107,0.0,-999.0,96,-99.99,,,-99.99,,2014-02-09 16:43:00,
2014-02-09 08:53:00,54.0,53.0,30.20,ESE,107,0.0,-999.0,96,-99.99,,,-99.99,,2014-02-09 16:53:00,
2014-02-09 09:22:00,55.0,54.0,30.22,ESE,107,0.0,-999.0,96,-99.99,,,-99.99,,2014-02-09 17:22:00,
2014-02-09 09:43:00,54.0,53.0,30.20,ESE,107,0.0,-999.0,95,-99.99,,,-99.99,,2014-02-09 17:43:00,
2014-02-09 09:53:00,55.0,54.0,30.19,ESE,107,0.0,-999.0,95,-99.99,,,-99.99,,2014-02-09 17:53:00,
2014-02-09 10:12:00,55.0,54.0,30.21,ESE,107,0.0,-999.0,96,-99.99,,,-99.99,,2014-02-09 18:12:00,
2014-02-09 10:21:00,55.0,54.0,30.22,ESE,108,0.0,-999.0,95,-99.99,,,-99.99,,2014-02-09 18:21:00,
2014-02-09 10:43:00,55.0,54.0,30.23,ESE,114,0.0,-999.0,95,-99.99,,,-99.99,,2014-02-09 18:43:00,
2014-02-09 10:52:00,54.0,53.0,30.24,ESE,119,0.0,-999.0,95,-99.99,,,-99.99,,2014-02-09 18:52:00,
2014-02-09 11:21:00,54.0,53.0,30.24,ESE,113,0.0,-999.0,95,-99.99,,,-99.99,,2014-02-09 19:21:00,
2014-02-09 11:52:00,55.0,54.0,30.21,ESE,111,1.0,-999.0,95,-99.99,,,-99.99,,2014-02-09 19:52:00,
2014-02-09 12:11:00,55.0,54.0,30.19,ENE,75,0.0,-999.0,96,-99.99,,,-99.99,,2014-02-09 20:11:00,
2014-02-09 12:21:00,54.0,53.0,30.19,South,172,1.0,-999.0,95,-99.99,,,-99.99,,2014-02-09 20:21:00,
2014-02-09 12:42:00,54.0,53.0,30.20,South,171,0.0,-999.0,95,-99.99,,,-99.99,,2014-02-09 20:42:00,
2014-02-09 12:52:00,55.0,54.0,30.17,South,171,0.0,-999.0,96,-99.99,,,-99.99,,2014-02-09 20:52:00,
2014-02-09 13:11:00,55.0,54.0,30.19,South,171,0.0,-999.0,96,-99.99,,,-99.99,,2014-02-09 21:11:00,
2014-02-09 13:21:00,55.0,54.0,30.18,South,181,1.0,-999.0,95,-99.99,,,-99.99,,2014-02-09 21:21:00,
2014-02-09 13:43:00,54.0,53.0,30.19,South,186,1.0,-999.0,95,-99.99,,,-99.99,,2014-02-09 21:43:00,
2014-02-09 13:53:00,55.0,54.0,30.17,South,182,0.0,-999.0,96,-99.99,,,-99.99,,2014-02-09 21:53:00,
2014-02-09 14:13:00,56.0,55.0,30.17,South,182,0.0,-999.0,96,-99.99,,,-99.99,,2014-02-09 22:13:00,
2014-02-09 14:23:00,55.0,54.0,30.16,South,182,0.0,-999.0,96,-99.99,,,-99.99,,2014-02-09 22:23:00,
2014-02-09 14:42:00,55.0,54.0,30.18,SSW,210,3.0,-999.0,95,-99.99,,,-99.99,,2014-02-09 22:42:00,
2014-02-09 14:53:00,54.0,53.0,30.18,SSW,210,0.0,-999.0,95,-99.99,,,-99.99,,2014-02-09 22:53:00,
2014-02-09 15:12:00,54.0,53.0,30.17,SSW,210,0.0,-999.0,96,-99.99,,,-99.99,,2014-02-09 23:12:00,
2014-02-09 15:22:00,54.0,53.0,30.17,SSW,210,0.0,-999.0,96,-99.99,,,-99.99,,2014-02-09 23:22:00,
2014-02-09 15:43:00,56.0,55.0,30.16,SSW,210,2.0,-999.0,96,-99.99,,,-99.99,,2014-02-09 23:43:00,
2014-02-09 15:52:00,55.0,54.0,30.16,SSW,210,0.0,-999.0,95,-99.99,,,-99.99,,2014-02-09 23:52:00,
2014-02-09 16:11:00,55.0,54.0,30.16,SSW,210,0.0,-999.0,95,-99.99,,,-99.99,,2014-02-10 00:11:00,
2014-02-09 16:21:00,55.0,54.0,30.16,SSW,210,0.0,-999.0,95,-99.99,,,-99.99,,2014-02-10 00:21:00,
2014-02-09 16:42:00,55.0,54.0,30.16,SSW,210,0.0,-999.0,96,-99.99,,,-99.99,,2014-02-10 00:42:00,
2014-02-09 16:52:00,55.0,54.0,30.17,SSW,209,0.0,-999.0,95,-99.99,,,-99.99,,2014-02-10 00:52:00,
2014-02-09 17:11:00,55.0,54.0,30.16,SSW,209,0.0,-999.0,95,-99.99,,,-99.99,,2014-02-10 01:11:00,
2014-02-09 17:21:00,55.0,54.0,30.17,SSW,209,0.0,-999.0,96,-99.99,,,-99.99,,2014-02-10 01:21:00,
2014-02-09 17:42:00,55.0,54.0,30.16,SSW,209,0.0,-999.0,96,-99.99,,,-99.99,,2014-02-10 01:42:00,
2014-02-09 17:52:00,55.0,54.0,30.17,SSW,208,0.0,-999.0,95,-99.99,,,-99.99,,2014-02-10 01:52:00,
2014-02-09 18:22:00,54.0,53.0,30.16,East,88,0.0,-999.0,95,-99.99,,,-99.99,,2014-02-10 02:22:00,
2014-02-09 18:42:00,54.0,53.0,30.15,East,101,1.0,-999.0,95,-99.99,,,-99.99,,2014-02-10 02:42:00,
2014-02-09 18:52:00,54.0,53.0,30.15,East,93,1.0,-999.0,95,-99.99,,,-99.99,,2014-02-10 02:52:00,
2014-02-09 19:11:00,54.0,53.0,30.16,East,90,0.0,-999.0,96,-99.99,,,-99.99,,2014-02-10 03:11:00,
2014-02-09 19:21:00,54.0,53.0,30.16,East,90,0.0,-999.0,96,-99.99,,,-99.99,,2014-02-10 03:21:00,
2014-02-09 19:43:00,54.0,53.0,30.17,East,90,0.0,-999.0,95,-99.99,,,-99.99,,2014-02-10 03:43:00,
2014-02-09 19:53:00,54.0,53.0,30.18,East,91,0.0,-999.0,95,-99.99,,,-99.99,,2014-02-10 03:53:00,
2014-02-09 20:13:00,54.0,53.0,30.17,East,91,0.0,-999.0,95,-99.99,,,-99.99,,2014-02-10 04:13:00,
2014-02-09 20:22:00,54.0,53.0,30.16,East,88,0.0,-999.0,95,-99.99,,,-99.99,,2014-02-10 04:22:00,
2014-02-09 20:43:00,55.0,54.0,30.17,ENE,63,1.0,-999.0,96,-99.99,,,-99.99,,2014-02-10 04:43:00,
2014-02-09 20:53:00,55.0,54.0,30.12,ENE,78,0.0,-999.0,95,-99.99,,,-99.99,,2014-02-10 04:53:00,
2014-02-09 21:12:00,54.0,53.0,30.15,ENE,78,3.0,-999.0,96,-99.99,,,-99.99,,2014-02-10 05:12:00,
2014-02-09 21:22:00,55.0,54.0,30.17,West,264,1.0,-999.0,95,-99.99,,,-99.99,,2014-02-10 05:22:00,
2014-02-09 21:53:00,54.0,53.0,30.17,WNW,289,1.0,-999.0,95,-99.99,,,-99.99,,2014-02-10 05:53:00,
2014-02-09 22:12:00,54.0,53.0,30.18,ENE,78,0.0,-999.0,95,-99.99,,,-99.99,,2014-02-10 06:12:00,
2014-02-09 22:21:00,54.0,53.0,30.17,ESE,105,1.0,-999.0,95,-99.99,,,-99.99,,2014-02-10 06:21:00,
2014-02-09 22:42:00,54.0,53.0,30.17,ESE,113,0.0,-999.0,95,-99.99,,,-99.99,,2014-02-10 06:42:00,
2014-02-09 22:52:00,54.0,53.0,30.17,East,96,1.0,-999.0,95,-99.99,,,-99.99,,2014-02-10 06:52:00,
2014-02-09 23:11:00,54.0,53.0,30.17,East,100,0.0,-999.0,95,-99.99,,,-99.99,,2014-02-10 07:11:00,
2014-02-09 23:21:00,54.0,53.0,30.17,ESE,103,1.0,-999.0,95,-99.99,,,-99.99,,2014-02-10 07:21:00,
2014-02-09 23:52:00,54.0,53.0,30.17,ESE,105,1.0,-999.0,95,-99.99,,,-99.99,,2014-02-10 07:52:00,